EW9411 Weather Reports


Display with metric or nautical units.
time (UTC)temp
F
wind
direction
speed
MPH
gust
MPH
rain 1hr
in
rain 24hr
in
rain mn
in
humidity
%
barometer
mb
20260509214837 55 132 1.0 4.0 0.10 0.30 0.30 94 1009.1
20260509214634 55 132 1.0 4.0 0.10 0.30 0.30 94 1009.1
20260509214341 55 113 2.0 4.0 0.10 0.30 0.30 94 1009.1
20260509214205 55 110 2.0 4.0 0.10 0.30 0.30 94 1009.1
20260509213831 55 104 1.0 3.0 0.11 0.30 0.30 94 1009.1
20260509213633 55 104 0.0 3.0 0.12 0.30 0.30 94 1009.2
20260509213359 55 104 0.0 4.0 0.12 0.29 0.29 94 1009.2
20260509213201 55 104 0.0 4.0 0.13 0.29 0.29 94 1009.4
20260509212907 55 104 0.0 4.0 0.14 0.28 0.28 94 1009.3
20260509212707 55 104 3.0 4.0 0.14 0.28 0.28 93 1009.2
20260509212357 55 104 1.0 3.0 0.14 0.28 0.28 93 1009.3
20260509212132 55 104 0.0 2.0 0.15 0.28 0.28 93 1009.3
20260509211842 55 104 0.0 2.0 0.14 0.27 0.27 93 1009.4
20260509211640 55 104 1.0 2.0 0.13 0.26 0.26 93 1009.5
20260509211348 55 104 0.0 2.0 0.13 0.26 0.26 93 1009.3
20260509211207 55 104 1.0 2.0 0.11 0.24 0.24 93 1009.3
20260509210837 55 104 1.0 3.0 0.12 0.24 0.24 93 1009.2
20260509210656 55 104 1.0 3.0 0.13 0.23 0.23 93 1009.2
20260509210343 55 104 1.0 3.0 0.13 0.23 0.23 93 1009.2
20260509210145 55 104 1.0 3.0 0.13 0.23 0.23 93 1009.1
20260509205831 55 104 0.0 3.0 0.13 0.22 0.22 93 1009.2
20260509205633 55 104 1.0 3.0 0.13 0.22 0.22 93 1009.2
20260509205401 55 104 1.0 3.0 0.14 0.22 0.22 92 1009.1
20260509205142 55 104 2.0 3.0 0.14 0.22 0.22 92 1009.2
20260509204830 56 92 1.0 4.0 0.12 0.20 0.20 92 1009.2
20260509204632 56 93 1.0 4.0 0.13 0.20 0.20 92 1009.2
20260509204338 56 92 2.0 4.0 0.14 0.20 0.20 92 1009.1
20260509204141 56 356 2.0 3.0 0.15 0.20 0.20 92 1009.1
20260509203847 56 338 1.0 2.0 0.15 0.19 0.19 92 1009.1
20260509203629 56 338 1.0 2.0 0.15 0.18 0.18 92 1009.2
20260509203337 56 338 1.0 2.0 0.14 0.17 0.17 92 1009.2
20260509203157 56 338 1.0 2.0 0.13 0.15 0.15 92 1009.3
20260509202847 56 338 1.0 2.0 0.12 0.14 0.14 92 1009.3
20260509202645 56 338 0.0 3.0 0.12 0.14 0.14 91 1009.2
20260509202357 56 338 1.0 3.0 0.12 0.14 0.14 91 1009.2
20260509202134 56 338 0.0 3.0 0.11 0.13 0.13 91 1009.4
20260509201846 56 338 1.0 3.0 0.11 0.13 0.13 91 1009.4
20260509201647 56 295 2.0 3.0 0.11 0.13 0.13 91 1009.4
20260509201357 56 295 1.0 3.0 0.11 0.13 0.13 91 1009.4
20260509201133 56 295 2.0 3.0 0.11 0.13 0.13 91 1009.5
20260509200843 56 295 1.0 2.0 0.10 0.12 0.12 90 1009.6
20260509200642 56 295 0.0 1.0 0.08 0.10 0.10 90 1009.6
20260509200332 56 295 0.0 2.0 0.08 0.10 0.10 90 1009.7
20260509200132 56 295 0.0 2.0 0.08 0.10 0.10 90 1009.7
20260509195843 56 295 0.0 2.0 0.07 0.09 0.09 89 1009.6
20260509195641 56 295 1.0 2.0 0.07 0.09 0.09 89 1009.6
20260509195352 56 295 0.0 2.0 0.06 0.08 0.08 89 1009.6
20260509195151 56 295 1.0 2.0 0.06 0.08 0.08 89 1009.6
20260509194838 56 295 1.0 4.0 0.06 0.08 0.08 88 1009.8
20260509194639 56 294 1.0 4.0 0.05 0.07 0.07 88 1009.7
20260509194408 57 295 1.0 4.0 0.04 0.06 0.06 88 1009.9
20260509194148 57 226 0.0 3.0 0.03 0.05 0.05 88 1009.8
20260509193836 57 226 0.0 3.0 0.02 0.04 0.04 88 1009.8
20260509193700 57 226 1.0 3.0 0.01 0.03 0.03 87 1009.8
20260509193406 57 226 1.0 10.0 0.00 0.02 0.02 87 1009.8
20260509193143 57 226 1.0 10.0 0.01 0.02 0.02 87 1009.8
20260509192833 57 272 4.0 10.0 0.01 0.02 0.02 87 1009.8
20260509192653 57 24 2.0 7.0 0.01 0.02 0.02 87 1009.8
20260509192342 58 297 2.0 5.0 0.02 0.02 0.02 87 1009.7
20260509192141 58 285 1.0 10.0 0.02 0.02 0.02 87 1009.7
20260509191831 57 290 1.0 10.0 0.02 0.02 0.02 86 1009.8
20260509191630 58 291 3.0 10.0 0.02 0.02 0.02 86 1009.8
20260509191359 57 219 2.0 4.0 0.02 0.02 0.02 86 1009.7
20260509191136 57 219 2.0 4.0 0.02 0.02 0.02 86 1009.7
20260509190847 58 69 1.0 3.0 0.02 0.02 0.02 86 1009.7
20260509190646 58 75 0.0 2.0 0.02 0.02 0.02 87 1009.7
20260509190338 57 75 1.0 4.0 0.02 0.02 0.02 87 1009.6
20260509190137 57 75 1.0 4.0 0.02 0.02 0.02 87 1009.8
20260509185849 57 75 1.0 4.0 0.02 0.02 0.02 86 1009.6
20260509185646 57 75 2.0 4.0 0.02 0.02 0.02 87 1009.6
20260509185354 57 4 1.0 4.0 0.02 0.02 0.02 87 1009.5
20260509185135 57 360 0.0 5.0 0.02 0.02 0.02 87 1009.4
20260509184904 57 360 2.0 5.0 0.02 0.02 0.02 86 1009.5
20260509184645 57 326 1.0 10.0 0.02 0.02 0.02 86 1009.5
20260509184331 57 4 2.0 10.0 0.02 0.02 0.02 86 1009.4
20260509184155 57 356 4.0 10.0 0.02 0.02 0.02 85 1009.3
20260509183844 57 10 4.0 6.0 0.02 0.02 0.02 85 1009.2
20260509183645 58 4 3.0 6.0 0.02 0.02 0.02 85 1009.5
20260509183352 58 2 2.0 12.0 0.02 0.02 0.02 84 1009.7
20260509183149 58 275 2.0 12.0 0.01 0.01 0.01 83 1009.9
20260509182859 58 289 5.0 12.0 0.01 0.01 0.01 83 1010.0
20260509182637 58 360 3.0 9.0 0.01 0.01 0.01 82 1010.0
20260509182347 59 206 3.0 11.0 0.00 0.00 0.00 82 1010.2
20260509182206 59 258 3.0 15.0 0.00 0.00 0.00 81 1010.1
20260509181837 59 277 5.0 15.0 0.00 0.00 0.00 80 1010.3
20260509181635 59 327 2.0 15.0 0.00 0.00 0.00 80 1010.3
20260509181344 60 254 5.0 16.0 0.00 0.00 0.00 79 1010.5
20260509181202 60 259 3.0 16.0 0.00 0.00 0.00 78 1010.4
20260509180832 60 295 7.0 16.0 0.00 0.00 0.00 78 1010.4
20260509180630 60 235 4.0 10.0 0.00 0.00 0.00 78 1010.3
20260509180342 60 229 3.0 10.0 0.00 0.00 0.00 77 1010.3
20260509180141 61 252 3.0 10.0 0.00 0.00 0.00 76 1010.3
20260509175908 61 227 7.0 14.0 0.00 0.00 0.00 75 1010.3
20260509175629 61 208 4.0 15.0 0.00 0.00 0.00 75 1010.2
20260509175337 61 227 4.0 15.0 0.00 0.00 0.00 74 1010.1
20260509175200 61 49 7.0 15.0 0.00 0.00 0.00 73 1010.1
20260509174845 62 231 9.0 16.0 0.00 0.00 0.00 72 1010.0
20260509174708 62 223 7.0 15.0 0.00 0.00 0.00 72 1009.9
20260509174354 62 226 7.0 15.0 0.00 0.00 0.00 71 1009.8
20260509174130 63 221 8.0 15.0 0.00 0.00 0.00 70 1009.8
20260509173838 63 221 7.0 15.0 0.00 0.00 0.00 69 1009.7
20260509173635 63 253 4.0 13.0 0.00 0.00 0.00 69 1009.7
20260509173345 63 203 5.0 13.0 0.00 0.00 0.00 69 1009.6
20260509173143 63 243 3.0 11.0 0.00 0.00 0.00 69 1009.6
20260509172835 63 230 3.0 11.0 0.00 0.00 0.00 69 1009.6
20260509172632 63 231 7.0 11.0 0.00 0.00 0.00 68 1009.5
20260509172344 63 196 6.0 11.0 0.00 0.00 0.00 69 1009.5
20260509172142 63 209 6.0 11.0 0.00 0.00 0.00 68 1009.5
20260509171834 63 269 6.0 9.0 0.00 0.00 0.00 69 1009.5
20260509171654 62 245 6.0 10.0 0.00 0.00 0.00 69 1009.6
20260509171342 62 240 3.0 9.0 0.00 0.00 0.00 69 1009.6
20260509171140 62 256 4.0 9.0 0.00 0.00 0.00 70 1009.6
20260509170831 62 257 2.0 9.0 0.00 0.00 0.00 70 1009.6
20260509170629 62 234 3.0 11.0 0.00 0.00 0.00 70 1009.5
20260509170341 62 231 6.0 11.0 0.00 0.00 0.00 69 1009.4
20260509170139 62 218 5.0 11.0 0.00 0.00 0.00 69 1009.5
20260509165831 62 207 5.0 11.0 0.00 0.00 0.00 70 1009.5
20260509165648 62 254 4.0 9.0 0.00 0.00 0.00 71 1009.5
20260509165338 62 240 1.0 10.0 0.00 0.00 0.00 71 1009.6
20260509165136 62 240 5.0 10.0 0.00 0.00 0.00 71 1009.6
20260509164904 62 219 4.0 10.0 0.00 0.00 0.00 71 1009.5
20260509164645 62 225 4.0 10.0 0.00 0.00 0.00 71 1009.5
20260509164332 62 224 6.0 10.0 0.00 0.00 0.00 70 1009.6
20260509164133 62 237 4.0 10.0 0.00 0.00 0.00 71 1009.7
20260509163840 62 213 6.0 11.0 0.00 0.00 0.00 69 1009.8
20260509163643 62 226 4.0 11.0 0.00 0.00 0.00 70 1009.8
20260509163329 62 243 5.0 11.0 0.00 0.00 0.00 69 1009.8
20260509163153 62 224 6.0 10.0 0.00 0.00 0.00 69 1009.9
20260509162840 62 200 5.0 11.0 0.00 0.00 0.00 70 1009.9
20260509162642 62 215 3.0 11.0 0.00 0.00 0.00 70 1009.9
20260509162331 62 200 5.0 11.0 0.00 0.00 0.00 71 1010.0
20260509162135 62 243 4.0 10.0 0.00 0.00 0.00 70 1009.9
20260509161842 62 234 5.0 13.0 0.00 0.00 0.00 71 1009.9
20260509161643 62 238 6.0 13.0 0.00 0.00 0.00 71 1009.8
20260509161349 62 222 6.0 13.0 0.00 0.00 0.00 71 1009.8
20260509161207 62 201 6.0 13.0 0.00 0.00 0.00 71 1009.9
20260509160837 62 257 4.0 13.0 0.00 0.00 0.00 74 1010.1
20260509160634 62 223 4.0 11.0 0.00 0.00 0.00 74 1010.2
20260509160412 62 227 3.0 11.0 0.00 0.00 0.00 74 1010.3
20260509160210 62 219 7.0 11.0 0.00 0.00 0.00 73 1010.4
20260509155900 62 214 6.0 8.0 0.00 0.00 0.00 75 1010.3
20260509155638 62 231 3.0 8.0 0.00 0.00 0.00 75 1010.1
20260509155330 62 196 3.0 8.0 0.00 0.00 0.00 75 1010.2
20260509155148 62 189 5.0 8.0 0.00 0.00 0.00 75 1010.3
20260509154838 62 228 4.0 8.0 0.00 0.01 0.00 77 1010.3
20260509154658 62 212 2.0 6.0 0.00 0.01 0.00 77 1010.3
20260509154343 61 202 2.0 6.0 0.00 0.01 0.00 77 1010.3
20260509154145 61 187 3.0 6.0 0.00 0.01 0.00 77 1010.4
20260509153833 61 206 3.0 9.0 0.00 0.01 0.00 79 1010.4
20260509153634 61 196 2.0 9.0 0.00 0.01 0.00 79 1010.4
20260509153341 60 190 4.0 9.0 0.00 0.01 0.00 79 1010.4
20260509153143 60 231 3.0 9.0 0.00 0.01 0.00 78 1010.4
20260509152830 60 210 1.0 5.0 0.00 0.01 0.00 79 1010.3
20260509152633 60 215 2.0 5.0 0.00 0.01 0.00 79 1010.3
20260509152339 60 239 1.0 8.0 0.00 0.01 0.00 79 1010.4
20260509152141 60 239 3.0 8.0 0.00 0.01 0.00 79 1010.5
20260509151848 60 216 4.0 8.0 0.00 0.01 0.00 79 1010.6
20260509151630 60 231 4.0 8.0 0.00 0.01 0.00 80 1010.6
20260509151335 59 195 1.0 6.0 0.00 0.01 0.00 80 1010.6
20260509151137 59 195 1.0 7.0 0.00 0.01 0.00 80 1010.6
20260509150845 59 196 4.0 7.0 0.00 0.01 0.00 80 1010.6
20260509150705 59 189 2.0 7.0 0.00 0.01 0.00 80 1010.7
20260509150334 59 202 4.0 7.0 0.00 0.01 0.00 80 1010.6
20260509150132 59 207 3.0 7.0 0.00 0.01 0.00 80 1010.6
20260509145843 59 202 4.0 7.0 0.00 0.01 0.00 80 1010.5
20260509145641 59 215 2.0 6.0 0.00 0.01 0.00 80 1010.5
20260509145332 59 177 3.0 6.0 0.00 0.01 0.00 81 1010.6
20260509145130 59 192 3.0 6.0 0.00 0.01 0.00 81 1010.5
20260509144842 59 192 3.0 6.0 0.00 0.01 0.00 81 1010.7
20260509144641 59 239 3.0 7.0 0.00 0.01 0.00 81 1010.7
20260509144331 59 216 2.0 4.0 0.00 0.01 0.00 81 1010.7
20260509144131 59 216 2.0 4.0 0.00 0.01 0.00 81 1010.7
20260509143842 59 221 3.0 4.0 0.00 0.01 0.00 81 1010.7
20260509143639 59 220 3.0 4.0 0.00 0.01 0.00 81 1010.7
20260509143330 58 229 1.0 4.0 0.00 0.01 0.00 82 1010.6
20260509143148 58 229 2.0 6.0 0.00 0.01 0.00 82 1010.5
20260509142839 58 243 2.0 6.0 0.00 0.01 0.00 82 1010.4
20260509142658 58 250 1.0 6.0 0.00 0.01 0.00 82 1010.4
20260509142349 58 245 2.0 4.0 0.00 0.01 0.00 82 1010.5
20260509142146 58 194 2.0 4.0 0.00 0.01 0.00 82 1010.5
20260509141837 58 237 0.0 5.0 0.00 0.01 0.00 83 1010.6
20260509141635 57 239 2.0 7.0 0.00 0.01 0.00 82 1010.6
20260509141342 57 234 2.0 7.0 0.00 0.01 0.00 83 1010.6
20260509141142 57 150 2.0 7.0 0.00 0.01 0.00 84 1010.6
20260509140833 57 149 4.0 7.0 0.00 0.01 0.00 84 1010.6
20260509140652 57 230 3.0 5.0 0.00 0.01 0.00 85 1010.6
20260509140340 57 119 0.0 3.0 0.00 0.01 0.00 85 1010.6
20260509140203 56 118 1.0 3.0 0.00 0.01 0.00 85 1010.5
20260509135830 56 119 1.0 3.0 0.00 0.01 0.00 86 1010.6
20260509135632 56 95 2.0 3.0 0.00 0.01 0.00 87 1010.6
20260509135339 56 341 1.0 2.0 0.00 0.01 0.00 87 1010.6
20260509135142 56 341 1.0 2.0 0.00 0.01 0.00 88 1010.7
20260509134831 56 341 1.0 2.0 0.00 0.01 0.00 88 1010.8
20260509134633 55 341 1.0 3.0 0.00 0.01 0.00 88 1010.7
20260509134340 55 341 1.0 3.0 0.00 0.01 0.00 88 1010.8
20260509134141 55 341 1.0 4.0 0.00 0.01 0.00 88 1010.7
20260509133829 55 340 1.0 4.0 0.00 0.01 0.00 88 1010.8
20260509133631 55 346 1.0 4.0 0.00 0.01 0.00 88 1010.6
20260509133338 55 351 3.0 4.0 0.00 0.01 0.00 87 1010.4
20260509133158 55 351 2.0 4.0 0.00 0.01 0.00 89 1010.6
20260509132847 55 255 2.0 3.0 0.00 0.01 0.00 89 1010.6
20260509132646 55 255 0.0 3.0 0.00 0.01 0.00 89 1010.7
20260509132338 55 255 0.0 3.0 0.00 0.01 0.00 89 1010.7
20260509132216 54 255 1.0 3.0 0.00 0.01 0.00 90 1010.7
20260509131907 54 253 0.0 0.0 0.00 0.01 0.00 90 1010.8
20260509131645 54 253 0.0 0.0 0.00 0.01 0.00 90 1010.8
20260509131334 54 253 0.0 0.0 0.00 0.01 0.00 90 1010.9
20260509131132 54 253 0.0 0.0 0.00 0.01 0.00 90 1010.8
20260509130842 54 253 0.0 0.0 0.00 0.01 0.00 90 1011.0
20260509130642 54 253 0.0 0.0 0.00 0.01 0.00 90 1011.0
20260509130333 54 253 0.0 0.0 0.00 0.01 0.00 90 1011.1
20260509130149 54 253 0.0 0.0 0.00 0.01 0.00 90 1011.2
20260509125840 53 253 0.0 0.0 0.00 0.01 0.00 91 1011.0
20260509125639 53 253 0.0 0.0 0.00 0.01 0.00 91 1010.9
20260509125331 53 253 0.0 0.0 0.00 0.01 0.00 91 1011.1
20260509125130 53 253 0.0 0.0 0.00 0.01 0.00 91 1011.1
20260509124838 53 253 0.0 0.0 0.00 0.01 0.00 91 1011.2
20260509124639 53 253 0.0 0.0 0.00 0.01 0.00 91 1011.1
20260509124347 53 253 0.0 0.0 0.00 0.01 0.00 91 1010.9
20260509124149 53 253 0.0 0.0 0.00 0.01 0.00 91 1011.0
20260509123836 52 253 0.0 0.0 0.00 0.01 0.00 91 1011.0
20260509123637 52 253 0.0 0.0 0.00 0.01 0.00 91 1011.0
20260509123344 52 253 0.0 0.0 0.00 0.01 0.00 91 1011.1
20260509123146 52 253 0.0 0.0 0.00 0.01 0.00 91 1011.2
20260509122833 52 253 0.0 0.0 0.00 0.01 0.00 92 1011.1
20260509122657 52 253 0.0 1.0 0.00 0.01 0.00 92 1011.0
20260509122404 52 253 0.0 1.0 0.00 0.01 0.00 91 1011.0
20260509122203 52 253 0.0 2.0 0.00 0.01 0.00 92 1011.1
20260509121834 52 253 0.0 2.0 0.00 0.01 0.00 92 1011.2
20260509121632 52 253 1.0 2.0 0.00 0.01 0.00 92 1011.3
20260509121341 52 253 1.0 2.0 0.00 0.01 0.00 92 1011.3
20260509121139 52 253 0.0 2.0 0.00 0.01 0.00 92 1011.3
20260509120831 52 253 1.0 2.0 0.00 0.01 0.00 92 1011.3
20260509120631 52 253 0.0 1.0 0.00 0.01 0.00 92 1011.2
20260509120341 52 253 0.0 2.0 0.00 0.01 0.00 92 1010.9
20260509120139 52 253 0.0 2.0 0.00 0.01 0.00 92 1010.9
20260509115831 52 253 0.0 2.0 0.00 0.01 0.00 92 1011.0
20260509115648 52 253 1.0 2.0 0.00 0.01 0.00 92 1011.1
20260509115340 52 253 0.0 3.0 0.00 0.01 0.00 92 1011.0
20260509115138 51 253 1.0 6.0 0.00 0.01 0.00 92 1011.1
20260509114848 51 253 1.0 6.0 0.00 0.01 0.00 92 1011.0
20260509114646 51 253 2.0 6.0 0.00 0.01 0.00 92 1011.2
20260509114332 51 255 2.0 6.0 0.00 0.01 0.00 92 1010.9
20260509114152 51 360 1.0 3.0 0.00 0.01 0.00 92 1010.6
20260509113841 51 360 2.0 3.0 0.00 0.01 0.00 92 1010.5
20260509113640 51 360 1.0 3.0 0.00 0.01 0.00 92 1010.7
20260509113330 51 360 2.0 3.0 0.00 0.01 0.00 92 1010.7
20260509113148 51 360 1.0 2.0 0.00 0.01 0.00 92 1010.8
20260509112833 51 360 2.0 2.0 0.00 0.01 0.00 92 1010.9
20260509112636 51 360 1.0 3.0 0.00 0.01 0.00 92 1011.1
20260509112344 51 360 1.0 4.0 0.00 0.01 0.00 92 1011.2
20260509112146 51 360 1.0 4.0 0.00 0.01 0.00 92 1011.2
20260509111834 51 360 3.0 4.0 0.00 0.01 0.00 92 1011.2
20260509111638 51 360 2.0 4.0 0.00 0.01 0.00 92 1011.2
20260509111342 51 360 1.0 3.0 0.00 0.01 0.00 93 1011.2
20260509111144 51 360 2.0 3.0 0.00 0.01 0.00 93 1011.2
20260509110831 51 360 1.0 2.0 0.00 0.01 0.00 93 1011.4
20260509110633 51 360 1.0 2.0 0.00 0.01 0.00 93 1011.4
20260509110340 51 360 1.0 3.0 0.00 0.01 0.00 92 1011.5
20260509110142 51 360 0.0 3.0 0.00 0.01 0.00 92 1011.5
20260509105831 51 360 1.0 3.0 0.00 0.01 0.00 92 1011.3
20260509105635 51 360 2.0 3.0 0.00 0.01 0.00 92 1011.2
20260509105402 51 360 2.0 3.0 0.00 0.01 0.00 92 1011.1
20260509105201 51 360 1.0 3.0 0.00 0.01 0.00 92 1011.0
20260509104831 51 360 1.0 3.0 0.00 0.01 0.00 92 1011.1
20260509104649 51 360 2.0 3.0 0.00 0.01 0.00 92 1011.1
20260509104402 51 360 1.0 3.0 0.00 0.01 0.00 92 1011.1
20260509104141 51 360 1.0 3.0 0.00 0.01 0.00 92 1011.1
20260509103853 51 360 2.0 3.0 0.00 0.01 0.00 92 1010.8
20260509103649 51 360 2.0 4.0 0.00 0.01 0.00 92 1010.9
20260509103340 51 360 2.0 4.0 0.00 0.01 0.00 92 1011.0
20260509103138 51 360 1.0 4.0 0.00 0.01 0.00 92 1011.1
20260509102848 51 360 3.0 5.0 0.00 0.01 0.00 92 1010.9
20260509102645 51 360 3.0 5.0 0.00 0.01 0.00 92 1010.9
20260509102336 51 1 3.0 5.0 0.00 0.01 0.00 92 1010.7
20260509102135 51 4 2.0 4.0 0.00 0.01 0.00 92 1010.7
20260509101845 51 4 2.0 4.0 0.00 0.01 0.00 92 1010.8
20260509101642 51 4 3.0 4.0 0.00 0.01 0.00 92 1010.7
20260509101408 51 4 2.0 3.0 0.00 0.01 0.00 92 1010.7
20260509101148 51 4 2.0 4.0 0.00 0.01 0.00 92 1010.7
20260509100836 51 4 2.0 4.0 0.00 0.01 0.00 92 1010.7
20260509100700 51 4 2.0 4.0 0.00 0.01 0.00 92 1010.7
20260509100346 51 4 2.0 4.0 0.00 0.01 0.00 92 1010.8
20260509100147 51 4 2.0 4.0 0.00 0.01 0.00 92 1010.7
20260509095834 51 4 2.0 5.0 0.00 0.01 0.00 92 1010.7
20260509095636 51 4 2.0 5.0 0.00 0.01 0.00 92 1010.7
20260509095343 51 4 2.0 5.0 0.00 0.01 0.00 92 1010.6
20260509095145 51 4 2.0 5.0 0.00 0.01 0.00 92 1010.6
20260509094851 51 6 2.0 4.0 0.00 0.01 0.00 92 1010.7
20260509094648 51 6 2.0 4.0 0.00 0.01 0.00 92 1010.7
20260509094337 51 6 2.0 4.0 0.00 0.01 0.00 92 1010.7
20260509094154 51 6 2.0 3.0 0.00 0.01 0.00 92 1010.7
20260509093906 51 6 2.0 3.0 0.00 0.01 0.00 92 1010.7
20260509093704 51 6 1.0 3.0 0.00 0.01 0.00 92 1010.7
20260509093335 51 6 2.0 3.0 0.00 0.01 0.00 92 1010.8
20260509093134 51 6 2.0 3.0 0.00 0.01 0.00 92 1010.8
20260509092845 51 6 2.0 4.0 0.00 0.01 0.00 92 1010.9
20260509092642 51 6 1.0 5.0 0.00 0.01 0.00 92 1010.8
20260509092334 51 6 3.0 5.0 0.00 0.01 0.00 92 1010.8
20260509092154 51 11 2.0 5.0 0.00 0.01 0.00 92 1010.9
20260509091843 51 4 3.0 5.0 0.00 0.01 0.00 92 1010.8
20260509091703 51 1 3.0 5.0 0.00 0.01 0.00 92 1010.8
20260509091347 51 1 3.0 5.0 0.00 0.01 0.00 92 1010.8
20260509091210 51 2 3.0 5.0 0.00 0.01 0.00 92 1010.8
20260509090836 51 2 3.0 4.0 0.00 0.01 0.00 92 1010.9
20260509090637 51 2 2.0 3.0 0.00 0.01 0.00 92 1010.9
20260509090344 51 2 2.0 3.0 0.00 0.01 0.00 92 1010.8
20260509090146 51 2 2.0 3.0 0.00 0.01 0.00 92 1010.8
20260509085833 51 2 2.0 2.0 0.00 0.01 0.00 92 1010.7
20260509085657 51 2 2.0 2.0 0.00 0.01 0.00 92 1010.7
20260509085343 51 2 1.0 2.0 0.00 0.01 0.00 92 1010.8
20260509085201 51 2 1.0 2.0 0.00 0.01 0.00 92 1010.8
20260509084831 51 2 1.0 2.0 0.00 0.01 0.00 92 1010.8
20260509084630 51 2 1.0 2.0 0.00 0.01 0.00 92 1010.9
20260509084342 51 2 1.0 3.0 0.00 0.01 0.00 92 1010.9
20260509084141 51 2 1.0 3.0 0.00 0.01 0.00 92 1010.9
20260509083834 51 2 1.0 3.0 0.00 0.01 0.00 92 1010.9
20260509083632 51 2 2.0 3.0 0.00 0.01 0.00 92 1010.9
20260509083343 51 2 2.0 3.0 0.00 0.01 0.00 92 1010.9
20260509083203 51 2 2.0 3.0 0.00 0.01 0.00 92 1011.0
20260509082832 51 2 2.0 3.0 0.00 0.01 0.00 92 1011.0
20260509082630 51 2 2.0 3.0 0.00 0.01 0.00 92 1011.0
20260509082341 51 2 2.0 4.0 0.00 0.01 0.00 92 1011.1
20260509082139 51 2 2.0 4.0 0.00 0.01 0.00 92 1011.1
20260509081848 51 2 2.0 4.0 0.00 0.01 0.00 92 1011.1
20260509081645 51 2 3.0 4.0 0.00 0.01 0.00 92 1011.1
20260509081334 51 4 2.0 4.0 0.00 0.01 0.00 92 1011.1
20260509081133 51 4 2.0 3.0 0.00 0.01 0.00 92 1011.0
20260509080844 51 4 2.0 3.0 0.00 0.01 0.00 92 1011.0
20260509080642 51 4 2.0 3.0 0.00 0.01 0.00 92 1011.0
20260509080332 51 4 1.0 2.0 0.00 0.01 0.00 92 1011.0
20260509080130 51 4 1.0 2.0 0.00 0.01 0.00 92 1011.0
20260509075837 51 4 1.0 3.0 0.00 0.01 0.00 92 1011.0
20260509075640 51 4 1.0 3.0 0.00 0.01 0.00 92 1011.1
20260509075329 51 4 2.0 3.0 0.00 0.01 0.00 92 1011.1
20260509075132 51 4 2.0 3.0 0.00 0.01 0.00 92 1011.2
20260509074837 51 4 2.0 3.0 0.00 0.01 0.00 92 1011.3
20260509074639 51 4 2.0 4.0 0.00 0.01 0.00 92 1011.2
20260509074345 51 4 2.0 4.0 0.00 0.01 0.00 92 1011.2
20260509074209 51 4 2.0 4.0 0.00 0.01 0.00 92 1011.2
20260509073835 51 4 2.0 5.0 0.00 0.01 0.00 92 1011.3
20260509073636 51 4 3.0 5.0 0.00 0.01 0.00 92 1011.3
20260509073343 51 5 3.0 5.0 0.00 0.01 0.00 92 1011.2
20260509073145 51 5 3.0 5.0 0.00 0.01 0.00 92 1011.2
20260509072833 51 356 3.0 5.0 0.00 0.01 0.00 92 1011.1
20260509072636 51 356 3.0 4.0 0.00 0.01 0.00 92 1011.1
20260509072343 51 356 2.0 3.0 0.00 0.01 0.00 92 1011.1
20260509072141 51 356 2.0 3.0 0.00 0.01 0.00 92 1011.1
20260509071833 51 356 1.0 3.0 0.00 0.01 0.00 92 1011.0
20260509071630 51 356 2.0 3.0 0.00 0.01 0.00 92 1010.9
20260509071340 51 356 2.0 3.0 0.00 0.01 0.00 92 1010.9
20260509071158 51 356 3.0 3.0 0.00 0.01 0.00 92 1010.8
20260509070847 51 356 2.0 3.0 0.00 0.01 0.00 92 1010.8
20260509070645 51 356 1.0 3.0 0.00 0.01 0.00 92 1010.9
20260509070336 51 356 1.0 3.0 0.00 0.01 0.00 92 1010.8
20260509070134 51 356 1.0 4.0 0.00 0.01 0.00 91 1010.9
20260509065846 51 356 2.0 5.0 0.00 0.01 0.00 92 1010.9
20260509065644 51 356 2.0 5.0 0.00 0.01 0.00 91 1010.8
20260509065335 51 356 2.0 5.0 0.00 0.01 0.00 91 1010.8
20260509065154 51 356 3.0 5.0 0.00 0.01 0.00 91 1010.8
20260509064843 51 356 2.0 5.0 0.00 0.01 0.00 91 1010.8
20260509064642 51 356 3.0 5.0 0.00 0.01 0.00 91 1010.8
20260509064333 51 356 3.0 4.0 0.00 0.01 0.00 91 1010.8
20260509064132 51 356 2.0 5.0 0.00 0.01 0.00 91 1010.8
20260509063843 51 356 2.0 5.0 0.00 0.01 0.00 91 1010.8
20260509063638 51 356 2.0 5.0 0.00 0.01 0.00 91 1010.8
20260509063330 51 351 3.0 4.0 0.00 0.01 0.00 91 1010.8
20260509063147 51 351 3.0 4.0 0.00 0.01 0.00 91 1010.8
20260509062833 51 346 3.0 4.0 0.00 0.01 0.00 91 1011.0
20260509062635 51 277 2.0 3.0 0.00 0.01 0.00 91 1011.1
20260509062343 51 277 2.0 3.0 0.00 0.01 0.00 91 1011.2
20260509062144 51 277 2.0 3.0 0.00 0.01 0.00 91 1011.2
20260509061830 51 277 2.0 3.0 0.00 0.01 0.00 91 1011.2
20260509061653 51 276 2.0 3.0 0.00 0.01 0.00 91 1011.2
20260509061338 51 269 1.0 2.0 0.00 0.01 0.00 91 1011.4
20260509061201 51 269 2.0 3.0 0.00 0.01 0.00 91 1011.4
20260509060907 51 269 2.0 3.0 0.00 0.01 0.00 91 1011.4
20260509060645 51 269 2.0 3.0 0.00 0.01 0.00 91 1011.3
20260509060337 51 269 1.0 3.0 0.00 0.01 0.00 91 1011.4
20260509060134 51 269 1.0 2.0 0.00 0.01 0.00 90 1011.4
20260509055846 51 269 1.0 2.0 0.00 0.01 0.00 90 1011.4
20260509055645 51 269 1.0 2.0 0.00 0.01 0.00 90 1011.5
20260509055356 51 269 1.0 2.0 0.00 0.01 0.00 90 1011.6
20260509055153 51 269 1.0 2.0 0.00 0.01 0.00 90 1011.6
20260509054904 51 269 1.0 2.0 0.00 0.01 0.00 90 1011.6
20260509054703 51 269 1.0 2.0 0.00 0.01 0.00 90 1011.6
20260509054332 51 269 1.0 2.0 0.00 0.01 0.00 90 1011.6
20260509054130 51 269 0.0 0.0 0.00 0.01 0.00 90 1011.6
20260509053840 51 269 0.0 0.0 0.00 0.01 0.00 90 1011.6
20260509053639 51 269 0.0 0.0 0.00 0.01 0.00 90 1011.6
20260509053330 51 269 0.0 0.0 0.00 0.01 0.00 90 1011.7
20260509053130 51 269 0.0 2.0 0.00 0.01 0.00 90 1011.7
20260509052836 51 269 0.0 2.0 0.00 0.01 0.00 89 1011.9
20260509052637 51 269 0.0 2.0 0.00 0.01 0.00 89 1012.0
20260509052345 51 269 1.0 2.0 0.00 0.01 0.00 89 1012.0
20260509052148 51 269 0.0 0.0 0.00 0.01 0.00 89 1011.9
20260509051835 51 269 0.0 0.0 0.00 0.01 0.00 89 1011.8
20260509051638 51 269 0.0 0.0 0.00 0.01 0.00 89 1011.9
20260509051345 51 269 0.0 0.0 0.00 0.01 0.00 88 1011.8
20260509051209 51 269 0.0 0.0 0.00 0.01 0.00 88 1011.7
20260509050836 51 269 0.0 0.0 0.00 0.01 0.00 88 1011.7
20260509050658 51 269 0.0 0.0 0.00 0.01 0.00 88 1011.7
20260509050404 51 269 0.0 0.0 0.00 0.01 0.00 88 1011.7
20260509050142 51 269 0.0 1.0 0.00 0.01 0.00 88 1011.7
20260509045834 51 269 0.0 1.0 0.00 0.01 0.00 87 1011.7
20260509045631 51 269 0.0 1.0 0.00 0.01 0.00 87 1011.7
20260509045410 51 269 0.0 1.0 0.00 0.01 0.00 87 1011.7
20260509045146 51 269 0.0 0.0 0.00 0.01 0.00 87 1011.8
20260509044838 51 269 0.0 0.0 0.00 0.01 0.00 87 1011.8
20260509044635 51 269 0.0 0.0 0.00 0.01 0.00 87 1011.8
20260509044346 51 269 0.0 0.0 0.00 0.01 0.00 87 1011.9
20260509044143 51 269 0.0 0.0 0.00 0.01 0.00 87 1011.8
20260509043835 51 269 0.0 2.0 0.00 0.01 0.00 87 1011.9
20260509043634 51 269 0.0 2.0 0.00 0.01 0.00 87 1011.9
20260509043345 51 269 0.0 2.0 0.00 0.01 0.00 87 1011.9
20260509043142 51 269 1.0 2.0 0.00 0.01 0.00 87 1011.8
20260509042833 51 269 1.0 2.0 0.00 0.01 0.00 86 1011.8
20260509042630 51 269 0.0 1.0 0.00 0.01 0.00 86 1011.8
20260509042341 51 269 0.0 2.0 0.00 0.01 0.00 86 1011.8
20260509042139 51 269 0.0 2.0 0.00 0.01 0.00 86 1011.8
20260509041829 51 269 1.0 2.0 0.00 0.01 0.00 86 1011.7
20260509041648 51 269 1.0 2.0 0.00 0.01 0.00 86 1011.8
20260509041338 51 269 0.0 1.0 0.00 0.01 0.00 86 1011.7
20260509041135 51 269 0.0 1.0 0.00 0.01 0.00 86 1011.7
20260509040842 51 269 0.0 1.0 0.00 0.01 0.00 86 1011.7
20260509040643 51 269 0.0 1.0 0.00 0.01 0.00 85 1011.8
20260509040331 51 269 0.0 2.0 0.00 0.01 0.00 85 1011.8
20260509040154 51 269 0.0 2.0 0.00 0.01 0.00 85 1011.8
20260509035836 51 269 0.0 2.0 0.00 0.01 0.00 85 1012.0
20260509035637 52 269 1.0 2.0 0.00 0.01 0.00 85 1012.0
20260509035344 52 269 1.0 2.0 0.00 0.01 0.00 85 1011.9
20260509035144 52 269 1.0 1.0 0.00 0.01 0.00 85 1011.8
20260509034830 52 269 0.0 1.0 0.00 0.01 0.01 84 1011.8
20260509034632 52 269 1.0 1.0 0.00 0.01 0.01 84 1011.8
20260509034339 52 269 0.0 1.0 0.00 0.01 0.01 84 1011.8
20260509034142 52 269 0.0 1.0 0.00 0.01 0.01 84 1011.8
20260509033830 52 269 0.0 1.0 0.00 0.01 0.01 84 1011.8
20260509033632 52 269 0.0 1.0 0.00 0.01 0.01 84 1011.8
20260509033339 52 269 0.0 1.0 0.00 0.01 0.01 84 1011.9
20260509033142 52 269 0.0 0.0 0.00 0.01 0.01 84 1011.9
20260509032909 52 269 0.0 1.0 0.00 0.01 0.01 84 1011.9
20260509032645 52 269 0.0 1.0 0.00 0.01 0.01 84 1011.9
20260509032356 52 269 0.0 1.0 0.00 0.01 0.01 84 1012.0
20260509032153 52 269 0.0 2.0 0.00 0.01 0.01 84 1012.0
20260509031903 52 269 0.0 2.0 0.00 0.01 0.01 84 1012.0
20260509031640 52 269 0.0 2.0 0.00 0.01 0.01 84 1012.0
20260509031348 52 269 1.0 2.0 0.00 0.01 0.01 84 1012.0
20260509031207 52 269 1.0 2.0 0.00 0.01 0.01 84 1012.0
20260509030839 52 269 1.0 2.0 0.00 0.01 0.01 83 1012.0
20260509030658 52 269 0.0 1.0 0.00 0.01 0.01 83 1012.1
20260509030342 52 269 0.0 1.0 0.00 0.01 0.01 83 1012.1
20260509030204 52 269 0.0 1.0 0.00 0.01 0.01 83 1012.0
20260509025830 52 269 0.0 1.0 0.00 0.01 0.01 83 1012.0
20260509025633 52 269 0.0 1.0 0.00 0.01 0.01 83 1012.0
20260509025401 52 269 0.0 1.0 0.00 0.01 0.01 83 1012.1
20260509025142 52 269 1.0 1.0 0.00 0.01 0.01 83 1012.1
20260509024830 52 269 0.0 0.0 0.00 0.01 0.01 82 1012.0
20260509024631 52 269 0.0 0.0 0.00 0.01 0.01 82 1012.0
20260509024339 52 269 0.0 0.0 0.00 0.01 0.01 82 1011.9
20260509024138 52 269 0.0 0.0 0.00 0.01 0.01 82 1012.0
20260509023830 52 269 0.0 0.0 0.00 0.01 0.01 82 1012.0
20260509023648 52 269 0.0 0.0 0.00 0.01 0.01 82 1012.0
20260509023338 52 269 0.0 0.0 0.00 0.01 0.01 82 1012.0
20260509023137 52 269 0.0 0.0 0.00 0.01 0.01 82 1012.0
20260509022847 52 269 0.0 0.0 0.00 0.01 0.01 81 1011.9
20260509022645 52 269 0.0 0.0 0.00 0.01 0.01 81 1011.9
20260509022335 52 269 0.0 0.0 0.00 0.01 0.01 81 1011.8
20260509022133 52 269 0.0 0.0 0.00 0.01 0.01 81 1011.9
20260509021845 52 269 0.0 0.0 0.00 0.01 0.01 81 1011.9
20260509021643 52 269 0.0 0.0 0.00 0.01 0.01 81 1011.9
20260509021353 52 269 0.0 1.0 0.00 0.01 0.01 81 1011.9
20260509021130 52 269 0.0 2.0 0.00 0.01 0.01 81 1011.8
20260509020908 52 269 0.0 2.0 0.00 0.01 0.01 81 1011.7
20260509020646 52 269 0.0 2.0 0.00 0.01 0.01 82 1011.7
20260509020336 52 269 1.0 2.0 0.00 0.01 0.01 82 1011.7
20260509020155 52 269 0.0 1.0 0.00 0.01 0.01 82 1011.7
20260509015843 52 269 0.0 0.0 0.00 0.01 0.01 81 1011.6
20260509015647 52 269 0.0 0.0 0.00 0.01 0.01 81 1011.6
20260509015333 52 269 0.0 0.0 0.00 0.01 0.01 81 1011.5
20260509015134 52 269 0.0 0.0 0.00 0.01 0.01 81 1011.4
20260509014841 52 269 0.0 0.0 0.00 0.01 0.01 81 1011.4
20260509014643 52 269 0.0 0.0 0.00 0.01 0.01 81 1011.4
20260509014330 52 269 0.0 0.0 0.00 0.01 0.01 81 1011.4
20260509014131 52 269 0.0 0.0 0.00 0.01 0.01 81 1011.4
20260509013838 53 269 0.0 0.0 0.00 0.01 0.01 81 1011.3
20260509013641 53 269 0.0 0.0 0.00 0.01 0.01 81 1011.3
20260509013349 53 269 0.0 0.0 0.00 0.01 0.01 80 1011.2
20260509013131 53 269 0.0 0.0 0.00 0.01 0.01 80 1011.2
20260509012838 52 269 0.0 0.0 0.00 0.01 0.01 80 1011.2
20260509012641 53 269 0.0 0.0 0.00 0.01 0.01 80 1011.1
20260509012349 53 269 0.0 0.0 0.00 0.01 0.01 80 1011.0
20260509012131 53 269 0.0 0.0 0.00 0.01 0.01 79 1010.9
20260509011839 53 269 0.0 0.0 0.00 0.01 0.01 79 1011.0
20260509011642 53 269 0.0 0.0 0.00 0.01 0.01 79 1010.9
20260509011348 53 269 0.0 0.0 0.00 0.01 0.01 79 1010.9
20260509011130 53 269 0.0 0.0 0.00 0.01 0.01 79 1010.9
20260509010837 53 269 0.0 0.0 0.00 0.01 0.01 78 1010.9
20260509010635 53 269 0.0 0.0 0.00 0.01 0.01 78 1010.8
20260509010346 53 269 0.0 0.0 0.00 0.01 0.01 78 1010.7
20260509010143 53 269 0.0 0.0 0.00 0.01 0.01 77 1010.7
20260509005833 53 269 0.0 0.0 0.00 0.01 0.01 77 1010.7
20260509005630 53 269 0.0 0.0 0.00 0.01 0.01 77 1010.7
20260509005341 54 269 0.0 0.0 0.00 0.01 0.01 76 1010.7
20260509005201 54 269 0.0 0.0 0.00 0.01 0.01 76 1010.6
20260509004829 54 269 0.0 0.0 0.00 0.01 0.01 76 1010.4
20260509004648 54 269 0.0 0.0 0.00 0.01 0.01 76 1010.4
20260509004337 54 269 0.0 0.0 0.00 0.01 0.01 76 1010.4
20260509004135 54 269 0.0 0.0 0.00 0.01 0.01 76 1010.4
20260509003846 54 269 0.0 0.0 0.00 0.01 0.01 75 1010.4
20260509003646 54 269 0.0 0.0 0.00 0.01 0.01 75 1010.4
20260509003337 55 269 0.0 0.0 0.00 0.01 0.01 74 1010.4
20260509003135 55 269 0.0 0.0 0.00 0.01 0.01 74 1010.3
20260509002846 55 269 0.0 0.0 0.00 0.01 0.01 73 1010.3
20260509002645 55 269 0.0 0.0 0.00 0.01 0.01 73 1010.2
20260509002355 55 269 0.0 0.0 0.00 0.01 0.01 73 1010.1
20260509002133 55 269 0.0 0.0 0.00 0.01 0.01 72 1010.1
20260509001859 55 269 0.0 0.0 0.00 0.01 0.01 72 1010.2
20260509001639 55 269 0.0 0.0 0.00 0.01 0.01 72 1010.2
20260509001345 55 269 0.0 0.0 0.00 0.01 0.01 72 1010.2
20260509001146 56 269 0.0 0.0 0.00 0.01 0.01 72 1010.3
20260509000833 56 269 0.0 0.0 0.00 0.01 0.01 71 1010.2
20260509000635 56 269 0.0 0.0 0.00 0.01 0.01 71 1010.2
20260509000342 56 269 0.0 0.0 0.00 0.01 0.01 70 1010.2
20260509000144 56 269 0.0 0.0 0.00 0.01 0.01 70 1010.2
20260508235851 56 269 0.0 0.0 0.00 0.01 0.01 70 1010.3
20260508235632 56 269 0.0 0.0 0.00 0.01 0.01 69 1010.3
20260508235339 56 269 0.0 0.0 0.00 0.01 0.01 69 1010.3
20260508235137 56 269 0.0 0.0 0.00 0.01 0.01 68 1010.3
20260508234847 56 269 0.0 0.0 0.00 0.01 0.01 67 1010.3
20260508234645 56 269 0.0 0.0 0.00 0.01 0.01 67 1010.3
20260508234335 56 269 0.0 0.0 0.00 0.01 0.01 67 1010.3
20260508234133 57 269 0.0 0.0 0.00 0.01 0.01 67 1010.3
20260508233845 57 269 0.0 0.0 0.00 0.01 0.01 66 1010.3
20260508233642 57 269 0.0 1.0 0.00 0.01 0.01 66 1010.3
20260508233333 57 269 0.0 1.0 0.00 0.01 0.01 66 1010.3
20260508233132 57 269 0.0 1.0 0.00 0.01 0.01 66 1010.3
20260508232842 57 269 0.0 1.0 0.00 0.01 0.01 65 1010.2
20260508232641 57 269 0.0 1.0 0.00 0.01 0.01 64 1010.2
20260508232332 57 269 0.0 2.0 0.00 0.01 0.01 63 1010.2
20260508232218 57 269 0.0 2.0 0.00 0.01 0.01 63 1010.2
20260508231908 58 269 0.0 2.0 0.00 0.01 0.01 63 1010.1
20260508231646 58 269 1.0 2.0 0.00 0.01 0.01 62 1010.1
20260508231356 58 269 0.0 1.0 0.00 0.01 0.01 62 1010.1
20260508231134 58 269 0.0 2.0 0.00 0.01 0.01 62 1010.1
20260508230840 58 269 0.0 2.0 0.00 0.01 0.01 62 1010.2
20260508230642 58 269 0.0 2.0 0.00 0.01 0.01 62 1010.2
20260508230347 58 269 1.0 2.0 0.00 0.01 0.01 61 1010.2
20260508230149 58 269 0.0 2.0 0.00 0.01 0.01 63 1010.1
20260508225835 58 269 0.0 2.0 0.00 0.01 0.01 62 1010.1
20260508225637 58 269 0.0 3.0 0.00 0.01 0.01 62 1010.1
20260508225404 58 269 1.0 3.0 0.00 0.01 0.01 61 1010.0
20260508225145 58 269 1.0 3.0 0.00 0.01 0.01 62 1010.0
20260508224833 58 269 1.0 3.0 0.00 0.01 0.01 62 1010.1
20260508224656 58 269 0.0 2.0 0.00 0.01 0.01 62 1010.0
20260508224402 58 269 1.0 2.0 0.00 0.01 0.01 63 1010.1
20260508224139 58 269 0.0 1.0 0.00 0.01 0.01 63 1010.0
20260508223831 58 269 0.0 4.0 0.00 0.01 0.01 64 1010.1
20260508223647 58 269 0.0 4.0 0.00 0.01 0.01 63 1010.1
20260508223358 58 269 0.0 4.0 0.00 0.01 0.01 63 1010.1
20260508223154 58 269 2.0 4.0 0.00 0.01 0.01 63 1010.1
20260508222906 58 306 0.0 3.0 0.00 0.01 0.01 63 1010.2
20260508222642 58 306 1.0 3.0 0.00 0.01 0.01 63 1010.2
20260508222333 58 306 0.0 2.0 0.00 0.01 0.01 64 1010.1
20260508222131 58 306 1.0 2.0 0.00 0.01 0.01 63 1010.1
20260508221842 58 306 1.0 3.0 0.00 0.01 0.01 64 1010.1
20260508221639 58 360 0.0 3.0 0.00 0.01 0.01 63 1010.1
20260508221403 58 360 1.0 4.0 0.00 0.01 0.01 64 1010.1
20260508221143 58 360 1.0 4.0 0.00 0.01 0.01 64 1010.1
20260508220849 58 360 1.0 4.0 0.00 0.01 0.01 64 1010.0
20260508220652 59 360 2.0 4.0 0.00 0.01 0.01 62 1010.1
20260508220338 59 351 1.0 4.0 0.00 0.01 0.01 64 1010.1
20260508220140 59 351 1.0 4.0 0.00 0.01 0.01 64 1010.0
20260508215847 59 351 1.0 4.0 0.00 0.01 0.01 64 1010.0
20260508215630 59 351 1.0 6.0 0.00 0.01 0.01 64 1010.0
20260508215356 58 10 2.0 6.0 0.00 0.01 0.01 64 1010.0
20260508215130 58 9 2.0 6.0 0.00 0.01 0.01 64 1010.0